Location: *
(46.1200°N, 11.2700°E)
Time: 20:23:45
(UTC+00:00)

SL-08 RB Rocket - Pass Details

Date: 02 March 2021
Orbit: 647 x 684 km, 97.8° (Epoch: 17 April)

Event Time Altitude Azimuth Distance (km) Brightness Sun altitude
Rises 18:18:26 0° 163° (SSE) 2,961 6.8 -13.9°
Reaches altitude 10° 18:20:38 10° 162° (SSE) 2,059 6.0 -14.3°
Maximum altitude 18:25:07 82° 76° (ENE) 672 3.6 -15.0°
Drops below altitude 10° 18:29:43 10° 349° (NNW) 2,097 6.5 -15.8°
Sets 18:31:57 0° 348° (NNW) 3,021 7.3 -16.2°
